Hourly Weather Catió

Today, 22 September, Tuesday

Time Temperature Precipitation Wind Pressure Humidity
00:00 +26°C° 0 mm 2 mps 759 mmHg 91%
01:00 +25°C° 0 mm 2 mps 758 mmHg 93%
02:00 +25°C° 0 mm 2 mps 758 mmHg 94%
03:00 +25°C° 0 mm 2 mps 758 mmHg 93%
04:00 +25°C° 0 mm 2 mps 758 mmHg 93%
05:00 +24°C° 0 mm 1 mps 758 mmHg 93%
06:00 +26°C° 0 mm 1 mps 759 mmHg 88%
07:00 +27°C° 0 mm 1 mps 759 mmHg 84%
08:00 +28°C° 0 mm 1 mps 760 mmHg 80%
09:00 +30°C° 0 mm 2 mps 760 mmHg 74%
10:00 +31°C° 0 mm 2 mps 760 mmHg 68%
11:00 +34°C° 0 mm 2 mps 760 mmHg 62%
12:00 +34°C° 0 mm 2 mps 759 mmHg 62%
13:00 +34°C° 0 mm 2 mps 758 mmHg 62%
14:00 +34°C° 0 mm 2 mps 758 mmHg 62%
15:00 +33°C° 0.2 mm 3 mps 758 mmHg 67%
16:00 +31°C° 0.2 mm 3 mps 758 mmHg 72%
17:00 +30°C° 0.2 mm 3 mps 757 mmHg 76%
18:00 +29°C° 0.1 mm 3 mps 758 mmHg 80%
19:00 +28°C° 0.1 mm 2 mps 759 mmHg 84%
20:00 +27°C° 0.1 mm 2 mps 759 mmHg 88%
21:00 +27°C° 0 mm 2 mps 759 mmHg 89%
22:00 +27°C° 0 mm 2 mps 760 mmHg 89%
23:00 +27°C° 0 mm 2 mps 760 mmHg 90%

Tomorrow, 23 September, Wednesday

Time Temperature Precipitation Wind Pressure Humidity
00:00 +27°C° 0 mm 2 mps 759 mmHg 90%
01:00 +27°C° 0 mm 2 mps 759 mmHg 91%
02:00 +27°C° 0 mm 2 mps 759 mmHg 91%
03:00 +27°C° 0.1 mm 2 mps 759 mmHg 92%
04:00 +27°C° 0.1 mm 2 mps 759 mmHg 92%
05:00 +27°C° 0.1 mm 2 mps 759 mmHg 92%
06:00 +28°C° 0 mm 2 mps 759 mmHg 89%
07:00 +29°C° 0 mm 2 mps 759 mmHg 85%
08:00 +29°C° 0 mm 3 mps 759 mmHg 81%
09:00 +30°C° 0.2 mm 2 mps 759 mmHg 77%
10:00 +31°C° 0.2 mm 2 mps 759 mmHg 74%
11:00 +32°C° 0.2 mm 2 mps 759 mmHg 70%
12:00 +33°C° 0.7 mm 3 mps 759 mmHg 71%
13:00 +33°C° 0.7 mm 3 mps 758 mmHg 73%
14:00 +33°C° 0.7 mm 3 mps 758 mmHg 75%
15:00 +31°C° 0.5 mm 3 mps 758 mmHg 77%
16:00 +30°C° 0.5 mm 3 mps 758 mmHg 78%
17:00 +30°C° 0.5 mm 4 mps 757 mmHg 80%
18:00 +29°C° 0 mm 3 mps 758 mmHg 83%
19:00 +28°C° 0 mm 3 mps 759 mmHg 86%
20:00 +28°C° 0 mm 3 mps 759 mmHg 89%
21:00 +27°C° 0.7 mm 3 mps 759 mmHg 90%
22:00 +27°C° 0.7 mm 3 mps 759 mmHg 91%
23:00 +27°C° 0.7 mm 3 mps 759 mmHg 92%

Day after tomorrow, 24 September, Thursday

Time Temperature Precipitation Wind Pressure Humidity
00:00 +27°C° 2.8 mm 4 mps 759 mmHg 92%
01:00 +27°C° 2.8 mm 4 mps 758 mmHg 92%
02:00 +27°C° 2.8 mm 4 mps 758 mmHg 92%
03:00 +27°C° 0.8 mm 4 mps 758 mmHg 91%
04:00 +27°C° 0.8 mm 4 mps 758 mmHg 91%
05:00 +26°C° 0.8 mm 3 mps 758 mmHg 91%
06:00 +27°C° 0.5 mm 3 mps 758 mmHg 88%
07:00 +28°C° 0.5 mm 3 mps 759 mmHg 85%
08:00 +29°C° 0.5 mm 3 mps 759 mmHg 81%
09:00 +30°C° 0.1 mm 3 mps 759 mmHg 76%
10:00 +31°C° 0.1 mm 3 mps 759 mmHg 70%
11:00 +34°C° 0.1 mm 3 mps 759 mmHg 65%
12:00 +33°C° 0.5 mm 4 mps 758 mmHg 66%
13:00 +33°C° 0.5 mm 4 mps 757 mmHg 68%
14:00 +33°C° 0.5 mm 4 mps 757 mmHg 69%
15:00 +32°C° 0.7 mm 4 mps 757 mmHg 73%
16:00 +30°C° 0.7 mm 4 mps 757 mmHg 77%
17:00 +30°C° 0.7 mm 4 mps 757 mmHg 80%
18:00 +29°C° 3.4 mm 4 mps 757 mmHg 83%
19:00 +28°C° 3.4 mm 4 mps 758 mmHg 86%
20:00 +27°C° 3.4 mm 4 mps 759 mmHg 88%
21:00 +27°C° 2.2 mm 3 mps 759 mmHg 91%
22:00 +26°C° 2.2 mm 3 mps 759 mmHg 93%
23:00 +25°C° 2.2 mm 3 mps 759 mmHg 95%

25 September, Friday

Time Temperature Precipitation Wind Pressure Humidity
00:00 +25°C° 0.9 mm 3 mps 759 mmHg 95%
01:00 +25°C° 0.9 mm 2 mps 758 mmHg 96%
02:00 +25°C° 0.9 mm 1 mps 758 mmHg 96%
03:00 +25°C° 0.7 mm 1 mps 758 mmHg 96%
04:00 +25°C° 0.7 mm 1 mps 758 mmHg 96%
05:00 +25°C° 0.7 mm 1 mps 758 mmHg 96%
06:00 +25°C° 0.1 mm 2 mps 759 mmHg 95%
07:00 +26°C° 0.1 mm 3 mps 759 mmHg 94%
08:00 +26°C° 0.1 mm 3 mps 760 mmHg 93%
09:00 +26°C° 0.1 mm 3 mps 760 mmHg 92%
10:00 +27°C° 0.1 mm 3 mps 760 mmHg 90%
11:00 +27°C° 0.1 mm 3 mps 760 mmHg 88%
12:00 +28°C° 0 mm 3 mps 759 mmHg 84%
13:00 +28°C° 0 mm 3 mps 758 mmHg 81%
14:00 +29°C° 0 mm 3 mps 758 mmHg 77%
15:00 +28°C° 0 mm 3 mps 758 mmHg 78%
16:00 +28°C° 0 mm 3 mps 758 mmHg 80%
17:00 +28°C° 0 mm 2 mps 758 mmHg 82%
18:00 +27°C° 0 mm 2 mps 758 mmHg 84%
19:00 +26°C° 0 mm 1 mps 759 mmHg 86%
20:00 +26°C° 0 mm 1 mps 759 mmHg 88%
21:00 +26°C° 0.5 mm 1 mps 760 mmHg 89%
22:00 +26°C° 0.5 mm 1 mps 760 mmHg 90%
23:00 +26°C° 0.5 mm 1 mps 760 mmHg 91%

26 September, Saturday

Time Temperature Precipitation Wind Pressure Humidity
00:00 +26°C° 0.1 mm 1 mps 759 mmHg 91%
01:00 +26°C° 0.1 mm 1 mps 759 mmHg 91%
02:00 +26°C° 0.1 mm 2 mps 758 mmHg 91%
03:00 +26°C° 0 mm 2 mps 758 mmHg 91%
04:00 +26°C° 0 mm 2 mps 758 mmHg 91%
05:00 +26°C° 0 mm 2 mps 758 mmHg 91%
06:00 +27°C° 0 mm 2 mps 758 mmHg 88%
07:00 +28°C° 0 mm 2 mps 758 mmHg 85%
08:00 +28°C° 0 mm 2 mps 758 mmHg 82%
09:00 +30°C° 0 mm 2 mps 758 mmHg 77%
10:00 +31°C° 0 mm 2 mps 758 mmHg 71%
11:00 +34°C° 0 mm 2 mps 758 mmHg 65%
12:00 +33°C° 0 mm 3 mps 758 mmHg 67%
13:00 +33°C° 0 mm 3 mps 757 mmHg 70%
14:00 +32°C° 0 mm 4 mps 757 mmHg 72%
15:00 +32°C° 0.1 mm 4 mps 757 mmHg 75%
16:00 +30°C° 0.1 mm 4 mps 757 mmHg 78%
17:00 +29°C° 0.1 mm 4 mps 756 mmHg 80%
18:00 +29°C° 0.3 mm 4 mps 757 mmHg 83%
19:00 +28°C° 0.3 mm 3 mps 758 mmHg 87%
20:00 +27°C° 0.3 mm 3 mps 758 mmHg 90%
21:00 +27°C° 0.3 mm 3 mps 758 mmHg 90%
22:00 +27°C° 0.3 mm 4 mps 758 mmHg 89%
23:00 +27°C° 0.3 mm 4 mps 758 mmHg 89%

27 September, Sunday

Time Temperature Precipitation Wind Pressure Humidity
00:00 +27°C° 0 mm 3 mps 757 mmHg 90%
01:00 +27°C° 0 mm 3 mps 757 mmHg 90%
02:00 +27°C° 0 mm 2 mps 757 mmHg 91%
03:00 +27°C° 0.1 mm 2 mps 757 mmHg 91%
04:00 +27°C° 0.1 mm 2 mps 757 mmHg 91%
05:00 +27°C° 0.1 mm 2 mps 757 mmHg 91%
06:00 +27°C° 1.2 mm 2 mps 757 mmHg 88%
07:00 +28°C° 1.2 mm 3 mps 757 mmHg 86%
08:00 +28°C° 1.2 mm 3 mps 757 mmHg 84%
09:00 +28°C° 0 mm 3 mps 757 mmHg 83%
10:00 +29°C° 0 mm 4 mps 757 mmHg 81%
11:00 +29°C° 0 mm 4 mps 757 mmHg 80%
12:00 +30°C° 0 mm 4 mps 756 mmHg 74%
13:00 +31°C° 0 mm 3 mps 756 mmHg 69%
14:00 +33°C° 0 mm 3 mps 755 mmHg 63%
15:00 +31°C° 0 mm 3 mps 755 mmHg 67%
16:00 +31°C° 0 mm 3 mps 755 mmHg 71%
17:00 +30°C° 0 mm 3 mps 755 mmHg 75%
18:00 +29°C° 0 mm 3 mps 756 mmHg 79%
19:00 +28°C° 0 mm 3 mps 757 mmHg 83%
20:00 +27°C° 0 mm 2 mps 757 mmHg 87%
21:00 +27°C° 0 mm 2 mps 757 mmHg 87%
22:00 +27°C° 0 mm 2 mps 757 mmHg 88%
23:00 +27°C° 0 mm 2 mps 757 mmHg 89%
Show more